Flag for Canada Weather past 2 weeks in Fort Simpson, Northwest Territories, Canada

-4 °F

Partly sunny.

Feels Like: -4 °F
Forecast: -9 / 3 °F
Wind: 2 mph from North

Location: Fort Simpson

Current Time: Nov 25, 2015 at 1:47:33 PM

Latest Report: Nov 25, 2015 at 1:00 PM

Visibility: 15 mi

Pressure: 30.20 "Hg

Humidity: 77%

Dew point: -9 °F

Location of Fort SimpsonLocation

Historic Weather in Fort Simpson — Graph


Fort Simpson temperature yesterday

Maximum temperature yesterday: 0 °F (at 1:00 PM)
Minimum temperature yesterday: -6 °F (at 1:00 AM)
Average temperature yesterday: -3 °F

Past Weeks' High & Low Weather Summary

High28 °F (Nov 10, 4:00 PM)93% (Nov 10, 10:00 PM)30.45 "Hg (Nov 10, 10:00 PM)
Low-17 °F (Nov 19, 10:00 PM)59% (Nov 11, 7:00 PM)29.00 "Hg (Nov 12, 11:00 PM)
Average8 °F81%29.77 "Hg
* Reported Nov 10 12:00 Noon — Nov 25 12:00 Noon, Fort Simpson, Weather by CustomWeather, © 2015

Note: Actual official high and low records may vary slightly from our data, if they occured in-between our weather recording intervals... More about our weather records


Fort Simpson weather history for previous 24 hours

Time TempWeatherWind HumidityBarometerVisibility
12:00 PM
Wed, Nov 25
-6 °FBroken clouds.2 mph70%30.20 "Hg15 mi
11:00 AM-8 °FPartly sunny.No wind70%30.21 "Hg15 mi
10:00 AM-9 °FBroken clouds.No wind77%30.21 "Hg15 mi
9:00 AM-9 °FPassing clouds.2 mph77%30.20 "Hg15 mi
8:00 AM-9 °FPassing clouds.No wind77%30.19 "Hg15 mi
7:00 AM-9 °FPassing clouds.No wind77%30.17 "Hg15 mi
6:00 AM-9 °FPassing clouds.No wind77%30.17 "Hg15 mi
5:00 AM-8 °FPassing clouds.2 mph77%30.17 "Hg15 mi
4:00 AM-8 °FPassing clouds.5 mph70%30.17 "Hg15 mi
3:00 AM-8 °FPassing clouds.2 mph70%30.19 "Hg15 mi
2:00 AM-8 °FPassing clouds.3 mph77%30.19 "Hg15 mi
1:00 AM-8 °FPassing clouds.2 mph77%30.20 "Hg15 mi
12:00 AM-6 °FPassing clouds.No wind70%30.19 "Hg15 mi
11:00 PM
Tue, Nov 24
-6 °FPassing clouds.5 mph77%30.19 "Hg15 mi
10:00 PM-6 °FPassing clouds.5 mph77%30.21 "Hg15 mi
9:00 PM-4 °FPassing clouds.3 mph77%30.22 "Hg15 mi
8:00 PM-4 °FPassing clouds.5 mph77%30.21 "Hg15 mi
7:00 PM-4 °FPassing clouds.3 mph77%30.21 "Hg15 mi
6:00 PM-4 °FPassing clouds.5 mph77%30.21 "Hg15 mi
5:00 PM-2 °FPartly cloudy.6 mph77%30.20 "Hg15 mi
4:00 PM-2 °FPassing clouds.3 mph77%30.21 "Hg15 mi
3:00 PM0 °FScattered clouds.6 mph78%30.20 "Hg15 mi
2:00 PM0 °FScattered clouds.5 mph78%30.20 "Hg15 mi
1:00 PM0 °FPassing clouds.6 mph78%30.22 "Hg15 mi
Weather by CustomWeather, © 2015

See weather overviewHow to use our weather pages